Content
SEND FEEDBACK

Daily
Averages
Monthly
Summary
Spain

VILLACARLOS, SPAIN


Home > Europe > Spain
Elevation: 194 feet     Latitude: 39 54N     Longitude: 004 18E

WEATHER
 
SELECT A DAY
Number of Records: 250,367;   Date Range: 7/1/96 - 9/3/14
 
SHARE

PRINT THIS DATA

[ ← Previous Day ]
WEATHER ALMANAC - JANUARY 31, 2013
[ Next Day → ]
[ °C ]   °F
Weather ElementAverageHighLow
Temperature58.1 °F66.2 °F (3:30 pm)50 °F (4:00 am)
Dewpoint50.8 °F55.4 °F (11:00 am)46.4 °F (4:00 am)
Humidity77.1 %100 % (10:00 pm)55 % (1:00 pm)
Barometer30.37 in30.45 in (12:00 pm)30.33 in (1:00 am)
Wind Speed7.3 mph12.7 mph (2:00 pm)
Weather ElementAverage
Visibility15.3 mi
Wind DirectionWSW (253.1 °)

Weather ElementTotal
Precipitation---
Heating Degree Days6.9 (Base 65)
Growing Degree Days8.1 (Base 50)
Averaged from 39 records on January 31, 2013
WEATHER CONDITIONS BREAKOUT
WIND DIRECTION BREAKOUT
WEATHER BY HOUR - JANUARY 31, 2013
[ °C ]   °F
Local TimeTemperatureDewpointHumidityBarometerVisibilityWind DirectionWind SpeedGust SpeedPrecipitationEventsConditions
1:00 AM53.6 °F48.2 °F82 %30.33 inNW (320°)6.9 mphClear
4:00 AM50.0 °F46.4 °F87 %30.33 inVariable2.3 mphClear
5:00 AM55.4 °F48.2 °F77 %30.33 inNorth (350°)8.1 mphClear
5:30 AM53.6 °F48.2 °F82 %30.33 inNorth (360°)6.9 mphClear
6:00 AM53.6 °F48.2 °F82 %30.36 inNNW (340°)6.9 mphClear
6:30 AM53.6 °F48.2 °F82 %30.36 inNNW (340°)5.8 mphClear
7:00 AM53.0 °F49.0 °F80 %30.38 in9.0 miNNW (340°)9.2 mphScattered Clouds
7:00 AM53.6 °F48.2 °F82 %30.36 inNNW (330°)8.1 mphClear
7:30 AM53.6 °F48.2 °F82 %30.36 inNNW (340°)8.1 mphClear
8:00 AM51.8 °F48.2 °F88 %30.36 inNNW (330°)8.1 mphClear
8:30 AM55.4 °F48.2 °F77 %30.36 inNW (320°)6.9 mphClear
9:00 AM55.4 °F50.0 °F82 %30.36 inVariable1.2 mphClear
9:30 AM59.0 °F50.0 °F72 %30.39 inWNW (290°)3.5 mphClear
10:00 AM59.0 °F51.8 °F77 %30.39 inWest (260°)4.6 mphClear
10:30 AM60.8 °F53.6 °F77 %30.42 inWest (270°)6.9 mphClear
11:00 AM60.8 °F55.4 °F82 %30.42 inWest (260°)10.4 mphClear
11:30 AM60.8 °F53.6 °F77 %30.42 inWSW (250°)10.4 mphClear
12:00 PM62.6 °F51.8 °F68 %30.45 inWSW (250°)10.4 mphClear
12:30 PM62.6 °F51.8 °F68 %30.42 inWest (260°)9.2 mphClear
1:00 PM64.0 °F52.0 °F55 %30.43 in19.0 miWest (260°)11.5 mphClear
1:30 PM64.4 °F51.8 °F64 %30.42 inWSW (250°)9.2 mphClear
2:00 PM64.4 °F50.0 °F59 %30.39 inWest (270°)12.7 mphClear
2:30 PM64.4 °F50.0 °F59 %30.39 inWest (260°)10.4 mphClear
3:00 PM64.4 °F50.0 °F59 %30.36 inWest (260°)10.4 mphClear
3:30 PM66.2 °F50.0 °F56 %30.36 inWest (260°)8.1 mphClear
4:00 PM62.6 °F51.8 °F68 %30.36 inWSW (240°)9.2 mphClear
4:30 PM62.6 °F51.8 °F68 %30.36 inWSW (240°)8.1 mphClear
5:00 PM62.6 °F51.8 °F68 %30.36 inWSW (250°)6.9 mphClear
5:30 PM60.8 °F50.0 °F68 %30.36 inWSW (240°)5.8 mphClear
6:00 PM59.0 °F50.0 °F72 %30.36 inSW (230°)4.6 mphClear
6:30 PM57.2 °F51.8 °F82 %30.36 inSW (220°)6.9 mphClear
7:00 PM55.0 °F52.0 °F84 %30.37 in18.0 miSSW (210°)6.9 mphClear
7:00 PM57.2 °F51.8 °F82 %30.36 inSW (220°)5.8 mphClear
7:30 PM57.2 °F53.6 °F88 %30.36 inSSW (200°)5.8 mphClear
8:00 PM57.2 °F53.6 °F88 %30.36 inSSW (200°)4.6 mphClear
8:30 PM55.4 °F53.6 °F94 %30.36 inSSW (210°)6.9 mphClear
9:00 PM55.4 °F53.6 °F94 %30.36 inSSW (210°)5.8 mphClear
9:30 PM53.6 °F51.8 °F94 %30.36 inSSW (210°)5.8 mphClear
10:00 PM53.6 °F53.6 °F100 %30.36 inSW (220°)5.8 mphClear
Hourly data recorded from LEMH, located miles away from Villacarlos, Spain







STORIES FROM OUR PARTNERS